User: anonymous   Login
Location: Laterina
(43.5167°N, 11.7167°E)
Time: 01:49:32
(UTC+00:00)
Language:

ISS - Orbit

View from above orbital plane
View from above orbital plane
View from above satellite
View from above satellite

Ground track
Ground track

The orbit data is extracted from the following two-line orbital elements,

1 25544U 98067A   20329.57564948  .00016717  00000-0  10270-3 0  9067
2 25544  51.6436 274.8595 0001906  68.6032 291.5321 15.49038318 16875
Epoch (UTC): 24 November 2020 13:48:56
Eccentricity: 0.0001906
inclination: 51.6436°
perigee height: 418 km
apogee height: 421 km
right ascension of ascending node: 274.8595°
argument of perigee: 68.6032°
revolutions per day: 15.49038318
mean anomaly at epoch: 291.5321°
orbit number at epoch: 1687

The dashed part of the orbit path shows where the satellite is in the earth's shadow,  

DLR